Location: Fort Worth, Tx
(32.7431°N, 97.3695°W)
Time: 05:41:25
(UTC-05:00)

Altair - Pass Details

Date: 12 October 2023
Orbit: 1501 x 1682 km, 47.2° (Epoch: 06 December)

Event Time Altitude Azimuth Distance (km) Brightness Sun altitude
Rises 05:56:26 0° 303° (WNW) 4,802 - -33.1°
Reaches altitude 10° 05:59:45 10° 310° (NW) 3,841 - -32.5°
Exits shadow 06:03:40 25° 325° (NW) 2,837 8.6 -31.7°
Maximum altitude 06:09:05 45° 21° (NNE) 2,149 8.3 -30.6°
Drops below altitude 10° 06:18:39 10° 91° (E) 3,936 10.5 -28.6°
Sets 06:22:04 0° 98° (E) 4,928 11.3 -27.9°
